Topeka, KS

5:35 AM CST on November 12, 2019 (GMT -0600)
Billard Municipal

Weather History for KTOP - September, 2019

Change the Weather History Date:

Wednesday, September 4, 2019

  Actual Average Record
Temperature  
Mean Temperature 76 °F 73 °F  
Max Temperature 84 °F 85 °F 103 °F (1954)
Min Temperature 67 °F 61 °F 39 °F (1974)
Degree Days  
Heating Degree Days 0 0  
Month to date heating degree days 0 0  
Since 1 July heating degree days 0 2  
Cooling Degree Days 11 9  
Month to date cooling degree days 52 36  
Year to date cooling degree days 1298 1264  
Growing Degree Days 25 (Base 50)    
Moisture  
Dew Point 61 °F    
Average Humidity 65    
Maximum Humidity 84    
Minimum Humidity 45    
Precipitation  
Precipitation 0.00 in 0.12 in 2.12 in (1989)
Month to date precipitation 0.00 0.48  
Year to date precipitation 40.89 27.05  
Snow  
Snow 0.00 in 0.00 in 0.00 in ()
Month to date snowfall 0.0 0.0  
Year to date snowfall 18.5 11.3  
Since 1 July snowfall T 0.0  
Snow Depth 0.00 in    
Sea Level Pressure  
Sea Level Pressure 30.11 in    
Wind  
Wind Speed 5 mph (NE)    
Max Wind Speed 10 mph    
Max Gust Speed 15 mph    
Visibility 10 miles    
Events      
T = Trace of Precipitation, MM = Missing Value Source: NWS Daily Summary

Daily Weather History Graph

Daily Weather History Graph

Search for Another Location

Airport or City:

Astronomy

Sep. 04, 2019 Rise Set
Actual Time 6:53 AM CDT 7:48 PM CDT
Civil Twilight 6:26 AM CDT 8:15 PM CDT
Nautical Twilight 5:54 AM CDT 8:48 PM CDT
Astronomical Twilight 5:20 AM CDT 9:21 PM CDT
Moon 12:53 PM CDT (9/4) 11:26 PM CDT (9/4)
Length of Visible Light 13h 49m
Length of Day
12h 54m
Waxing Crescent, 35% of the Moon is Illuminated
Sep 4
Waxing Crescent
Sep 5
First Quarter
Sep 13
Full
Sep 21
Last Quarter
Sep 28
New

Hourly Weather History & Observations

Time (CDT) Temp. Heat Index Dew Point Humidity Pressure Visibility Wind Dir Wind Speed Gust Speed Precip Events Conditions
12:53 AM 77.0 °F - 66.9 °F 71% 30.04 in 10.0 mi NNE 8.1 mph - N/A   Scattered Clouds
1:53 AM 75.0 °F - 62.1 °F 64% 30.06 in 10.0 mi NNE 6.9 mph - N/A   Scattered Clouds
2:53 AM 73.9 °F - 60.1 °F 62% 30.07 in 10.0 mi NE 5.8 mph - N/A   Overcast
3:53 AM 71.1 °F - 61.0 °F 70% 30.09 in 10.0 mi NNW 4.6 mph - N/A   Scattered Clouds
4:53 AM 70.0 °F - 61.0 °F 73% 30.10 in 10.0 mi North 3.5 mph - N/A   Mostly Cloudy
5:53 AM 68.0 °F - 62.1 °F 81% 30.12 in 10.0 mi North 3.5 mph - N/A   Partly Cloudy
6:53 AM 66.9 °F - 61.0 °F 81% 30.13 in 10.0 mi North 4.6 mph - N/A   Scattered Clouds
7:53 AM 68.0 °F - 61.0 °F 78% 30.14 in 10.0 mi NNE 5.8 mph - N/A   Mostly Cloudy
8:53 AM 71.1 °F - 60.1 °F 68% 30.15 in 10.0 mi NNE 5.8 mph - N/A   Clear
9:53 AM 73.0 °F - 59.0 °F 61% 30.16 in 10.0 mi ENE 9.2 mph - N/A   Partly Cloudy
10:53 AM 75.9 °F - 59.0 °F 56% 30.16 in 10.0 mi NE 6.9 mph - N/A   Clear
11:53 AM 78.1 °F - 59.0 °F 52% 30.16 in 10.0 mi ENE 8.1 mph - N/A   Clear
12:53 PM 80.1 °F 80.7 °F 59.0 °F 48% 30.15 in 10.0 mi ENE 5.8 mph - N/A   Clear
1:53 PM 80.1 °F 80.7 °F 59.0 °F 48% 30.14 in 10.0 mi Variable 6.9 mph - N/A   Clear
2:53 PM 81.0 °F 81.1 °F 57.9 °F 45% 30.12 in 10.0 mi ESE 5.8 mph - N/A   Clear
3:53 PM 82.9 °F 82.8 °F 59.0 °F 44% 30.10 in 10.0 mi ENE 4.6 mph - N/A   Clear
4:53 PM 82.0 °F 82.1 °F 59.0 °F 45% 30.10 in 10.0 mi East 4.6 mph - N/A   Clear
5:53 PM 81.0 °F 81.7 °F 61.0 °F 50% 30.09 in 10.0 mi East 5.8 mph - N/A   Clear
6:53 PM 79.0 °F - 64.0 °F 60% 30.09 in 10.0 mi East 4.6 mph - N/A   Clear
7:53 PM 75.0 °F - 64.0 °F 69% 30.08 in 10.0 mi ENE 3.5 mph - N/A   Clear
8:53 PM 73.0 °F - 64.0 °F 73% 30.09 in 10.0 mi Calm Calm - N/A   Clear
9:53 PM 71.1 °F - 64.0 °F 78% 30.09 in 10.0 mi Calm Calm - N/A   Clear
11:53 PM 70.0 °F - 64.0 °F 81% 30.09 in 10.0 mi Calm Calm - N/A   Clear